• In Russia
  • List of Countries
  • For 7 days
  • Water Temperature
  • Satellite Maps
  • Weather Map
  • Weather Widgets
  • user-avatar
    Login

    Hourly Weather Lankaran

    Today, 22 February, Wednesday

    Time Temperature Precipitation Wind Pressure Humidity
    00:00 -7°C° 0 mm 3 mps 628 mmHg 60%
    01:00 -7°C° 0 mm 3 mps 628 mmHg 60%
    02:00 -7°C° 0 mm 3 mps 628 mmHg 61%
    03:00 -8°C° 0 mm 4 mps 628 mmHg 61%
    04:00 -8°C° 0 mm 4 mps 628 mmHg 60%
    05:00 -9°C° 0 mm 4 mps 628 mmHg 59%
    06:00 -9°C° 0 mm 4 mps 628 mmHg 57%
    07:00 -6°C° 0 mm 3 mps 629 mmHg 61%
    08:00 -5°C° 0 mm 3 mps 629 mmHg 65%
    09:00 -2°C° 0 mm 3 mps 630 mmHg 67%
    10:00 -1°C° 0 mm 3 mps 630 mmHg 70%
    11:00 0°C° 0 mm 3 mps 630 mmHg 74%
    12:00 +1°C° 0 mm 3 mps 631 mmHg 77%
    13:00 +1°C° 0 mm 3 mps 630 mmHg 76%
    14:00 +1°C° 0 mm 3 mps 630 mmHg 76%
    15:00 +1°C° 0 mm 3 mps 630 mmHg 75%
    16:00 -1°C° 0 mm 3 mps 630 mmHg 73%
    17:00 -2°C° 0 mm 3 mps 629 mmHg 71%
    18:00 -5°C° 0 mm 3 mps 629 mmHg 69%
    19:00 -5°C° 0 mm 3 mps 629 mmHg 67%
    20:00 -7°C° 0 mm 4 mps 629 mmHg 66%
    21:00 -7°C° 0 mm 4 mps 629 mmHg 65%
    22:00 -7°C° 0 mm 4 mps 629 mmHg 65%
    23:00 -7°C° 0 mm 4 mps 629 mmHg 65%

    Tomorrow, 23 February, Thursday

    Time Temperature Precipitation Wind Pressure Humidity
    00:00 -7°C° 0 mm 4 mps 629 mmHg 66%
    01:00 -7°C° 0 mm 4 mps 629 mmHg 65%
    02:00 -7°C° 0 mm 4 mps 629 mmHg 64%
    03:00 -7°C° 0 mm 4 mps 629 mmHg 63%
    04:00 -7°C° 0 mm 4 mps 629 mmHg 63%
    05:00 -7°C° 0 mm 4 mps 629 mmHg 64%
    06:00 -7°C° 0 mm 4 mps 629 mmHg 64%
    07:00 -5°C° 0 mm 4 mps 630 mmHg 66%
    08:00 -4°C° 0 mm 4 mps 631 mmHg 67%
    09:00 -2°C° 0 mm 3 mps 631 mmHg 69%
    10:00 -1°C° 0 mm 3 mps 631 mmHg 70%
    11:00 0°C° 0 mm 3 mps 632 mmHg 72%
    12:00 +1°C° 0 mm 3 mps 632 mmHg 74%
    13:00 +1°C° 0 mm 3 mps 632 mmHg 74%
    14:00 +1°C° 0 mm 3 mps 632 mmHg 75%
    15:00 +1°C° 0 mm 3 mps 632 mmHg 75%
    16:00 -1°C° 0 mm 2 mps 632 mmHg 76%
    17:00 -3°C° 0 mm 2 mps 632 mmHg 77%
    18:00 -5°C° 0 mm 2 mps 632 mmHg 77%
    19:00 -5°C° 0 mm 2 mps 632 mmHg 75%
    20:00 -5°C° 0 mm 2 mps 632 mmHg 73%
    21:00 -6°C° 0 mm 3 mps 632 mmHg 71%
    22:00 -6°C° 0 mm 3 mps 632 mmHg 69%
    23:00 -6°C° 0 mm 3 mps 632 mmHg 67%

    Day after tomorrow, 24 February, Friday

    Time Temperature Precipitation Wind Pressure Humidity
    00:00 -5°C° 0 mm 3 mps 632 mmHg 66%
    01:00 -6°C° 0 mm 3 mps 632 mmHg 65%
    02:00 -6°C° 0 mm 3 mps 632 mmHg 65%
    03:00 -6°C° 0 mm 3 mps 632 mmHg 64%
    04:00 -6°C° 0 mm 3 mps 633 mmHg 63%
    05:00 -6°C° 0 mm 3 mps 633 mmHg 62%
    06:00 -6°C° 0 mm 3 mps 633 mmHg 61%
    07:00 -4°C° 0 mm 3 mps 634 mmHg 62%
    08:00 -2°C° 0 mm 3 mps 634 mmHg 63%
    09:00 -1°C° 0 mm 2 mps 635 mmHg 64%
    10:00 +1°C° 0 mm 2 mps 635 mmHg 68%
    11:00 +2°C° 0 mm 2 mps 635 mmHg 72%
    12:00 +3°C° 0 mm 2 mps 636 mmHg 75%
    13:00 +4°C° 0 mm 2 mps 635 mmHg 75%
    14:00 +4°C° 0 mm 2 mps 635 mmHg 75%
    15:00 +4°C° 0 mm 2 mps 635 mmHg 75%
    16:00 +2°C° 0 mm 2 mps 635 mmHg 72%
    17:00 +1°C° 0 mm 2 mps 635 mmHg 68%
    18:00 -1°C° 0 mm 3 mps 635 mmHg 65%
    19:00 -1°C° 0 mm 3 mps 635 mmHg 62%
    20:00 -1°C° 0 mm 3 mps 635 mmHg 59%
    21:00 -1°C° 0 mm 3 mps 635 mmHg 56%
    22:00 -1°C° 0 mm 3 mps 635 mmHg 55%
    23:00 -2°C° 0 mm 3 mps 635 mmHg 53%

    25 February, Saturday

    Time Temperature Precipitation Wind Pressure Humidity
    00:00 -2°C° 0 mm 3 mps 635 mmHg 52%
    01:00 -2°C° 0 mm 3 mps 635 mmHg 53%
    02:00 -2°C° 0 mm 3 mps 635 mmHg 54%
    03:00 -2°C° 0 mm 2 mps 635 mmHg 55%
    04:00 -2°C° 0 mm 2 mps 635 mmHg 56%
    05:00 -2°C° 0 mm 2 mps 635 mmHg 57%
    06:00 -2°C° 0 mm 2 mps 635 mmHg 58%
    07:00 -1°C° 0 mm 2 mps 635 mmHg 58%
    08:00 +1°C° 0 mm 2 mps 636 mmHg 58%
    09:00 +3°C° 0 mm 2 mps 636 mmHg 58%
    10:00 +3°C° 0 mm 2 mps 636 mmHg 63%
    11:00 +4°C° 0 mm 2 mps 636 mmHg 67%
    12:00 +5°C° 0 mm 2 mps 635 mmHg 72%
    13:00 +4°C° 0 mm 3 mps 635 mmHg 71%
    14:00 +4°C° 0 mm 3 mps 634 mmHg 71%
    15:00 +4°C° 0 mm 3 mps 634 mmHg 70%
    16:00 +3°C° 0 mm 3 mps 634 mmHg 67%
    17:00 +2°C° 0 mm 3 mps 633 mmHg 64%
    18:00 0°C° 0 mm 3 mps 633 mmHg 61%
    19:00 0°C° 0 mm 3 mps 633 mmHg 58%
    20:00 0°C° 0 mm 3 mps 633 mmHg 55%
    21:00 -1°C° 0 mm 3 mps 633 mmHg 52%
    22:00 -1°C° 0 mm 3 mps 633 mmHg 53%
    23:00 -2°C° 0 mm 4 mps 632 mmHg 55%

    26 February, Sunday

    Time Temperature Precipitation Wind Pressure Humidity
    00:00 -2°C° 0 mm 4 mps 632 mmHg 56%
    01:00 -2°C° 0 mm 4 mps 631 mmHg 56%
    02:00 -2°C° 0 mm 4 mps 631 mmHg 57%
    03:00 -2°C° 0 mm 4 mps 631 mmHg 57%
    04:00 -2°C° 0 mm 4 mps 631 mmHg 56%
    05:00 -2°C° 0 mm 4 mps 631 mmHg 55%
    06:00 -3°C° 0 mm 4 mps 631 mmHg 54%
    07:00 -1°C° 0 mm 4 mps 631 mmHg 55%
    08:00 +1°C° 0 mm 3 mps 632 mmHg 56%
    09:00 +2°C° 0 mm 3 mps 632 mmHg 57%
    10:00 +3°C° 0 mm 3 mps 633 mmHg 60%
    11:00 +4°C° 0 mm 3 mps 633 mmHg 63%
    12:00 +5°C° 0 mm 3 mps 633 mmHg 67%
    13:00 +4°C° 0 mm 3 mps 633 mmHg 68%
    14:00 +4°C° 0 mm 3 mps 633 mmHg 69%
    15:00 +4°C° 0 mm 4 mps 633 mmHg 70%
    16:00 +2°C° 0 mm 3 mps 633 mmHg 74%
    17:00 +1°C° 0 mm 3 mps 634 mmHg 78%
    18:00 -1°C° 0 mm 3 mps 634 mmHg 82%
    19:00 -1°C° 0 mm 3 mps 634 mmHg 84%
    20:00 -2°C° 0 mm 3 mps 635 mmHg 85%
    21:00 -2°C° 0 mm 3 mps 635 mmHg 86%
    22:00 -2°C° 0 mm 3 mps 636 mmHg 87%
    23:00 -4°C° 0 mm 3 mps 636 mmHg 87%

    27 February, Monday

    Time Temperature Precipitation Wind Pressure Humidity
    00:00 -4°C° 0 mm 3 mps 636 mmHg 88%
    01:00 -4°C° 0 mm 3 mps 636 mmHg 89%
    02:00 -4°C° 0 mm 3 mps 636 mmHg 89%
    03:00 -3°C° 0 mm 2 mps 636 mmHg 90%
    04:00 -3°C° 0.1 mm 2 mps 637 mmHg 90%
    05:00 -3°C° 0.1 mm 2 mps 637 mmHg 90%
    06:00 -3°C° 0.1 mm 2 mps 637 mmHg 91%
    07:00 -3°C° 0.1 mm 2 mps 637 mmHg 89%
    08:00 -2°C° 0.1 mm 2 mps 638 mmHg 87%
    09:00 -1°C° 0.1 mm 2 mps 638 mmHg 85%
    10:00 +1°C° 0 mm 2 mps 638 mmHg 84%
    11:00 +1°C° 0 mm 2 mps 638 mmHg 84%
    12:00 +2°C° 0 mm 2 mps 637 mmHg 83%
    13:00 +2°C° 0 mm 2 mps 637 mmHg 83%
    14:00 +2°C° 0 mm 2 mps 636 mmHg 83%
    15:00 +2°C° 0 mm 3 mps 636 mmHg 83%
    16:00 +2°C° 0 mm 2 mps 636 mmHg 84%
    17:00 +1°C° 0 mm 2 mps 635 mmHg 86%
    18:00 +1°C° 0 mm 2 mps 635 mmHg 88%
    19:00 -1°C° 0 mm 2 mps 635 mmHg 87%
    20:00 -1°C° 0 mm 2 mps 635 mmHg 86%
    21:00 -1°C° 0 mm 2 mps 635 mmHg 85%
    22:00 -1°C° 0 mm 2 mps 635 mmHg 83%
    23:00 -1°C° 0 mm 2 mps 634 mmHg 81%
    Show more